FENGYUN 1C DEB

Satellite information

Favourite Embed

Satellite Type and Status

DEBRISIN ORBIT

Key statistics

Satellite FENGYUN 1C DEB at a glance.

Uptime

9664

Days in orbit

Revolutions

≈ 14.1

Per day

Orbit

SSO

Sun Synchronous Orbit

Inclination

98.7

Latest

Satellite identification and parameters

Extended collection of information and parameters for FENGYUN 1C DEB.

Object identification

Identified? True

Debris? True

Object name: FENGYUN 1C DEB

International designator: 1999-025ARK

Object number (NORAD): 30701

Object ID (CCSDS): 30701

Country: PEOPLES REPUBLIC OF CHINA (PRC)

Current information (Y/N): Y

RCS size: SMALL

Orbital parameters

Period: 101.844 minutes

Inclination: 98.7263 deg

SMA: 7224.091 km

Apoapsis: 870.291 km

Periapsis: 821.62 km

RAAN: 339.0886 deg

Eccentricy: 0.0033687

Argument of periapsis: 245.3535 deg

Mean anomaly: 272.3147 deg

Mean motion: 14.13930222 rev/day

Mean motion (dot): -0.00000015 rev/day2

B* drag term: 0.000014619 1/REarth

Two-line elements (TLE)

Creation date: Oct. 23, 2025, 10:26 p.m.

Reference frame: TEME

Reference center: EARTH

Epoch: Oct. 23, 2025, 1:45 p.m. UTC

TLE line 0: 0 FENGYUN 1C DEB

TLE line 1: 1 30701U 99025ARK 25296.57318016 -.00000015 00000-0 14619-4 0 9993

TLE line 2: 2 30701 98.7263 339.0886 0033687 245.3535 272.3147 14.13930222964102

Live tracking on map

Real-time ground track for satellite FENGYUN 1C DEB.

In-orbit conjunctions

A list of the most updated potential collisions computed for object FENGYUN 1C DEB.

Target Orbit TCA Probability of collision Miss distance Type
CZ-6A DEB LEO 2025-04-08 16:36:17 0.0001220916 301.0 (m) DEBRIS

Associated space launch

Chinese polar orbiting meteorological satellite

FENGYUN 1C DEB was lifted into orbit during the mission ‘Long March 4B | Feng Yun 1C’, on board a Long March 4B space rocket.

The launch took place on May 10, 1999, 1:33 a.m. from Launch Complex 7.

For more information about the launch, click the button.

Launch to space Long March 4B | Feng Yun 1C
Long March 4B | Feng Yun 1C

Agency: N/A

Status: Launch Successful

Launch date: May 10, 1999, 1:33 a.m. UTC

Rocket: Long March 4B

Launch pad: Launch Complex 7

Location: Taiyuan Satellite Launch Center, People's Republic of China

...

Latest news about this satellite

There are no fresh news available about this satellite. Check back as we update our databases every day.


Newsletter sign-up

Weekly statistics, charts and insights to help you stay on top of the space industry.